sat.trackr.live / text

‹ back to catalog

STARLINK-3793

NORAD 52380 · 2022-045BB

PAYLOAD ACTIVE UNKNOWN

§ Identity

Operator
Country
US
Launch date
2022-04-29
Launch site
AFETR
Launch vehicle
Mass (kg)
RCS (m²)

Purposes: comms

External: N2YO · Heavens-Above · Gunter

§ Orbital elements

Epoch: 2026-05-25T03:52:12.152064Z

Period
95.44 min
Inclination
53.2123°
Eccentricity
0.0001152
Mean motion
15.08836485 rev/d
Perigee alt
539.0 km
Apogee alt
540.6 km
Semi-major
6,917.9 km
B*
1.0448e-4
RAAN
195.8568°
Arg perigee
81.5288°
Mean anomaly
278.5835°
Rev number
22,760

§ Raw data

STARLINK-37931 52380U 22045BB  26145.16125176  .00001375  00000+0  10448-3 0  99932 52380  53.2123 195.8568 0001152  81.5288 278.5835 15.08836485227602

JSON: /api/v1/satellites/52380 · /tle

For live sub-satellite position, see the globe view (requires WebGL).

§ Visibility from observer

Set your observer location to see the next 7 days of passes ≥ 10°. The values pass through the URL so the page stays shareable.

No JS? Fill the form by hand. The geolocation button needs JavaScript.